Home > Weather > Provo > Past weeks

Flag for USA Weather for the Past 2 Weeks in Provo, Utah, USA

Now
52 °F

Passing clouds.


Feels Like: 47 °F
Forecast: 39 / 61 °F
Wind: 15 mph from Southeast

Location: Provo Municipal

Current Time: Apr 30, 2016 at 11:05:09 PM

Latest Report: Apr 30, 2016 at 10:35 PM


Visibility: 10 mi

Pressure: 29.98 "Hg (25.38 "Hg at 1386m altitude)

Humidity: 44%

Dew Point: 30 °F

Location of ProvoLocation

Historic Weather in Provo — Graph

°F

Provo Temperature Yesterday

Maximum temperature yesterday: 54 °F (at 2:49 PM)
Minimum temperature yesterday: 39 °F (at 5:55 AM)
Average temperature yesterday: 46 °F

High & Low Weather Summary for the Past Weeks

 TemperatureHumidityPressure
High79 °F (Apr 21, 3:47 PM)87% (Apr 24, 2:35 AM)30.28 "Hg (Apr 24, 2:35 AM)
Low36 °F (Apr 16, 6:35 AM)17% (Apr 21, 3:47 PM)29.58 "Hg (Apr 25, 1:19 PM)
Average49 °F57%29.95 "Hg
* Reported Apr 15 9:15 PM — Apr 30 9:15 PM, Provo, Weather by CustomWeather, © 2016

Note: Actual official high and low records may vary slightly from our data, if they occured in-between our weather recording intervals... More about our weather records

Advertising

Provo Weather History for the Previous 24 Hours

Scroll right to see more
 ConditionsComfort  
Time TempWeatherWind HumidityBarometerVisibility
9:15 PM
Sat, Apr 30
54 °FPartly sunny.No wind41%29.95 "Hg10 mi
7:59 PM54 °FBroken clouds.No wind44%29.92 "Hg10 mi
6:52 PM54 °FBroken clouds.7 mph51%29.92 "Hg10 mi
5:56 PM57 °FBroken clouds.5 mph41%29.92 "Hg10 mi
4:47 PM55 °FScattered showers. Broken clouds.10 mph47%29.91 "Hg10 mi
3:57 PM55 °FScattered showers. Broken clouds.10 mph44%29.91 "Hg10 mi
2:47 PM61 °FScattered showers. Broken clouds.12 mph36%29.90 "Hg10 mi
1:54 PM57 °FBroken clouds.10 mph39%29.91 "Hg10 mi
12:47 PM55 °FBroken clouds.12 mph44%29.92 "Hg10 mi
11:47 AM54 °FBroken clouds.14 mph51%29.93 "Hg10 mi
10:47 AM52 °FScattered clouds.6 mph58%29.93 "Hg10 mi
9:47 AM50 °FScattered clouds.6 mph62%29.94 "Hg10 mi
8:49 AM48 °FScattered clouds.No wind62%29.93 "Hg10 mi
7:49 AM43 °FScattered clouds.No wind76%29.91 "Hg10 mi
6:51 AM37 °FPassing clouds.5 mph81%29.89 "Hg10 mi
6:35 AM37 °FPassing clouds.3 mph81%29.89 "Hg10 mi
6:15 AM37 °FPassing clouds.No wind75%29.89 "Hg10 mi
5:55 AM37 °FClear.No wind81%29.88 "Hg10 mi
5:35 AM37 °FClear.6 mph75%29.88 "Hg10 mi
5:15 AM37 °FClear.5 mph75%29.87 "Hg10 mi
4:55 AM37 °FClear.No wind75%29.87 "Hg10 mi
4:35 AM39 °FClear.5 mph81%29.87 "Hg10 mi
3:55 AM37 °FClear.No wind81%29.86 "Hg10 mi
3:35 AM39 °FClear.6 mph75%29.86 "Hg10 mi
3:15 AM39 °FClear.No wind81%29.87 "Hg10 mi
2:35 AM43 °FClear.8 mph71%29.86 "Hg10 mi
2:15 AM39 °FClear.7 mph81%29.87 "Hg10 mi
1:55 AM41 °FPassing clouds.7 mph76%29.87 "Hg10 mi
1:15 AM43 °FClear.No wind76%29.87 "Hg10 mi
12:35 AM43 °FPassing clouds.7 mph76%29.86 "Hg10 mi
11:55 PM
Fri, Apr 29
43 °FClear.6 mph76%29.86 "Hg10 mi
11:15 PM45 °FPassing clouds.No wind76%29.87 "Hg10 mi
Weather by CustomWeather, © 2016

See weather overviewHow to use our weather pages